TimeEST,TemperatureF,Dew PointF,Humidity,Sea Level PressureIn,VisibilityMPH,Wind Direction,Wind SpeedMPH,Gust SpeedMPH,PrecipitationIn,Events,Conditions,WindDirDegrees,DateUTC
12:15 AM,36.0,30.6,81,30.06,10.0,WSW,8.1,-,N/A,,Clear,250,2013-02-12 05:15:00
12:35 AM,35.4,30.0,81,30.07,10.0,WSW,6.9,-,N/A,,Clear,240,2013-02-12 05:35:00
12:55 AM,35.1,30.2,82,30.07,10.0,WSW,6.9,-,N/A,,Clear,240,2013-02-12 05:55:00
1:15 AM,35.1,30.2,82,30.08,10.0,WSW,6.9,-,N/A,,Clear,240,2013-02-12 06:15:00
1:35 AM,35.1,30.6,84,30.08,10.0,WSW,5.8,-,N/A,,Clear,240,2013-02-12 06:35:00
1:55 AM,34.3,30.4,85,30.08,10.0,WSW,6.9,-,N/A,,Clear,250,2013-02-12 06:55:00
2:15 AM,32.9,29.3,87,30.08,10.0,WSW,8.1,-,N/A,,Clear,250,2013-02-12 07:15:00
2:35 AM,35.1,30.7,84,30.08,10.0,West,8.1,-,N/A,,Clear,260,2013-02-12 07:35:00
2:55 AM,33.8,30.0,86,30.09,10.0,West,9.2,-,N/A,,Clear,260,2013-02-12 07:55:00
3:15 AM,32.5,28.8,86,30.09,10.0,West,5.8,-,N/A,,Clear,260,2013-02-12 08:15:00
3:35 AM,32.5,29.1,87,30.09,10.0,Calm,Calm,-,N/A,,Clear,0,2013-02-12 08:35:00
3:55 AM,32.5,29.5,88,30.10,10.0,WSW,3.5,-,N/A,,Clear,250,2013-02-12 08:55:00
4:15 AM,32.0,30.2,93,30.10,10.0,WNW,3.5,-,N/A,,Clear,300,2013-02-12 09:15:00
4:35 AM,32.5,30.9,94,30.11,10.0,WNW,3.5,-,N/A,,Clear,290,2013-02-12 09:35:00
4:55 AM,32.5,30.7,93,30.11,10.0,West,3.5,-,N/A,,Clear,260,2013-02-12 09:55:00
5:15 AM,32.5,31.1,94,30.11,10.0,West,4.6,-,N/A,,Clear,260,2013-02-12 10:15:00
5:35 AM,30.2,28.4,93,30.12,10.0,Calm,Calm,-,N/A,,Clear,0,2013-02-12 10:35:00
5:55 AM,30.2,28.8,94,30.13,10.0,Calm,Calm,-,N/A,,Scattered Clouds,0,2013-02-12 10:55:00
6:15 AM,27.9,26.6,95,30.13,10.0,Calm,Calm,-,N/A,,Scattered Clouds,0,2013-02-12 11:15:00
6:35 AM,27.9,27.3,98,30.13,10.0,Calm,Calm,-,N/A,,Clear,0,2013-02-12 11:35:00
6:55 AM,28.9,27.5,94,30.13,10.0,West,8.1,-,N/A,,Scattered Clouds,280,2013-02-12 11:55:00
7:15 AM,30.2,27.5,90,30.14,10.0,West,6.9,-,N/A,,Mostly Cloudy,280,2013-02-12 12:15:00
7:35 AM,28.9,26.2,90,30.14,10.0,West,5.8,-,N/A,,Mostly Cloudy,260,2013-02-12 12:35:00
7:55 AM,27.9,26.1,93,30.14,10.0,WSW,4.6,-,N/A,,Scattered Clouds,240,2013-02-12 12:55:00
8:15 AM,28.2,26.6,94,30.15,10.0,WSW,4.6,-,N/A,,Scattered Clouds,250,2013-02-12 13:15:00
8:35 AM,32.0,29.5,90,30.15,10.0,West,4.6,-,N/A,,Clear,260,2013-02-12 13:35:00
8:55 AM,32.5,29.5,88,30.15,10.0,West,5.8,-,N/A,,Clear,260,2013-02-12 13:55:00
9:15 AM,32.5,29.1,87,30.15,10.0,WSW,6.9,-,N/A,,Clear,250,2013-02-12 14:15:00
9:35 AM,32.5,28.4,85,30.15,10.0,West,4.6,-,N/A,,Clear,260,2013-02-12 14:35:00
9:55 AM,32.5,28.0,83,30.15,10.0,West,5.8,-,N/A,,Clear,260,2013-02-12 14:55:00
10:15 AM,34.3,29.1,81,30.15,10.0,West,5.8,-,N/A,,Clear,260,2013-02-12 15:15:00
10:35 AM,35.1,29.1,79,30.14,10.0,SW,4.6,-,N/A,,Clear,220,2013-02-12 15:35:00
10:55 AM,35.1,28.4,77,30.12,10.0,West,3.5,-,N/A,,Clear,270,2013-02-12 15:55:00
11:15 AM,37.4,30.4,76,30.15,10.0,South,5.8,-,N/A,,Clear,180,2013-02-12 16:15:00
11:35 AM,37.6,29.7,73,30.14,10.0,Calm,Calm,-,N/A,,Clear,0,2013-02-12 16:35:00
11:55 AM,37.6,29.3,72,30.13,10.0,South,5.8,-,N/A,,Clear,170,2013-02-12 16:55:00
12:15 PM,38.8,29.3,69,30.11,10.0,South,4.6,-,N/A,,Clear,190,2013-02-12 17:15:00
12:35 PM,40.1,29.1,65,30.08,10.0,SSW,4.6,-,N/A,,Clear,200,2013-02-12 17:35:00
12:55 PM,40.1,28.4,63,30.04,10.0,Calm,Calm,-,N/A,,Clear,0,2013-02-12 17:55:00
1:15 PM,41.5,28.2,59,30.03,10.0,Calm,Calm,-,N/A,,Clear,0,2013-02-12 18:15:00
1:35 PM,44.6,30.0,57,30.04,10.0,SW,5.8,-,N/A,,Clear,230,2013-02-12 18:35:00
1:55 PM,47.7,32.0,55,30.06,10.0,WSW,10.4,-,N/A,,Clear,250,2013-02-12 18:55:00
2:15 PM,47.7,30.6,52,30.05,10.0,West,11.5,16.1,N/A,,Clear,260,2013-02-12 19:15:00
2:35 PM,47.7,30.2,51,30.05,10.0,WSW,11.5,-,N/A,,Clear,240,2013-02-12 19:35:00
2:55 PM,47.7,29.5,49,30.04,10.0,WSW,16.1,20.7,N/A,,Clear,250,2013-02-12 19:55:00
3:15 PM,47.7,29.7,50,30.03,10.0,SSW,8.1,-,N/A,,Clear,200,2013-02-12 20:15:00
3:35 PM,47.7,28.0,47,30.04,10.0,WSW,9.2,-,N/A,,Clear,240,2013-02-12 20:35:00
3:55 PM,47.7,28.0,47,30.03,10.0,SW,10.4,-,N/A,,Clear,220,2013-02-12 20:55:00
4:15 PM,47.7,27.7,46,30.03,10.0,SW,13.8,19.6,N/A,,Clear,230,2013-02-12 21:15:00
4:35 PM,47.7,27.9,46,30.02,10.0,SW,11.5,17.3,N/A,,Clear,220,2013-02-12 21:35:00
4:55 PM,47.7,28.0,47,30.01,10.0,WSW,8.1,-,N/A,,Clear,250,2013-02-12 21:55:00
5:15 PM,47.7,29.7,50,30.00,10.0,SW,5.8,-,N/A,,Clear,230,2013-02-12 22:15:00
5:35 PM,47.7,28.8,48,30.00,10.0,West,4.6,-,N/A,,Clear,270,2013-02-12 22:35:00
5:55 PM,47.7,29.3,49,29.99,10.0,WNW,3.5,-,N/A,,Clear,290,2013-02-12 22:55:00
6:15 PM,45.5,28.2,51,29.98,10.0,Calm,Calm,-,N/A,,Clear,0,2013-02-12 23:15:00
6:35 PM,43.2,26.6,52,29.98,10.0,Calm,Calm,-,N/A,,Clear,0,2013-02-12 23:35:00
6:55 PM,38.3,27.9,66,29.98,10.0,Calm,Calm,-,N/A,,Clear,0,2013-02-12 23:55:00
7:15 PM,38.5,30.9,74,29.98,10.0,Calm,Calm,-,N/A,,Clear,0,2013-02-13 00:15:00
7:35 PM,35.2,30.9,84,29.97,10.0,Calm,Calm,-,N/A,,Clear,0,2013-02-13 00:35:00
7:55 PM,35.1,29.7,81,29.97,10.0,Calm,Calm,-,N/A,,Clear,0,2013-02-13 00:55:00
8:15 PM,35.1,30.6,84,29.97,10.0,Calm,Calm,-,N/A,,Clear,0,2013-02-13 01:15:00
8:35 PM,34.3,30.9,87,29.96,10.0,Calm,Calm,-,N/A,,Clear,0,2013-02-13 01:35:00
9:15 PM,32.5,29.8,90,29.96,10.0,Calm,Calm,-,N/A,,Clear,0,2013-02-13 02:15:00
9:35 PM,32.5,29.3,88,29.95,10.0,Calm,Calm,-,N/A,,Clear,0,2013-02-13 02:35:00
9:55 PM,32.5,29.7,89,29.95,10.0,Calm,Calm,-,N/A,,Clear,0,2013-02-13 02:55:00
10:15 PM,32.5,30.6,92,29.95,10.0,North,5.8,-,N/A,,Clear,10,2013-02-13 03:15:00
10:35 PM,32.5,29.5,88,29.95,10.0,Calm,Calm,-,N/A,,Clear,0,2013-02-13 03:35:00
10:55 PM,32.5,30.6,92,29.94,10.0,Calm,Calm,-,N/A,,Clear,0,2013-02-13 03:55:00
11:15 PM,32.5,30.6,92,29.95,10.0,Calm,Calm,-,N/A,,Clear,0,2013-02-13 04:15:00
11:35 PM,32.5,30.7,93,29.95,10.0,Calm,Calm,-,N/A,,Clear,0,2013-02-13 04:35:00
11:55 PM,32.5,31.6,96,29.95,10.0,North,4.6,-,N/A,,Clear,360,2013-02-13 04:55:00